Simultaneous Nadir Overpasses (SNOs) Predictions

Prediction of SNOs between GOES-15 and METOP-B Satellite Orbit:

Table of predicted SNOs for the next 14.0 days since TLE Epoch: 6/22/2024
Index Date Time (GOES-15) GOES-15 Lat,Lon METOP-B Lat,Lon Distance(km) Time Diff (sec)
1 06/23/2024 17:14:30 0.17, 61.27 0.19, 61.44 19.08 80
2 06/25/2024 05:36:06 -0.14, 61.23 0.83, 56.85 498.73 80
3 06/26/2024 05:12:50 -0.17, 61.23 -0.33, 61.82 67.88 80
4 06/27/2024 17:34:35 0.14, 61.26 -0.75, 57.20 462.78 80
5 06/28/2024 17:11:18 0.17, 61.26 0.36, 62.17 104.03 80
6 06/30/2024 05:32:54 -0.13, 61.21 0.65, 57.58 413.55 80
7 07/01/2024 05:09:38 -0.16, 61.22 -0.46, 62.56 152.71 80
8 07/02/2024 17:31:22 0.12, 61.26 -0.60, 57.93 378.78 80
9 07/03/2024 17:08:06 0.15, 61.27 0.51, 62.91 187.31 80
10 07/05/2024 05:29:41 -0.11, 61.23 0.55, 58.33 331.06 80
